Regional Weather Roundup
Issued by NWS

Home | Current Version | Previous Version | Graphics & Text | Print | Product List | Glossary On
Versions: 1 2 3 4 5 6 7 8 9 10 11 12 13 14 15 16 17 18 19 20 21 22 23 24 25 26 27 28 29 30 31 32 33 34 35 36 37 38 39 40 41 42 43 44 45 46 47 48 49 50
000
ASUS43 KBIS 101910
RWRND

NORTH DAKOTA REGIONAL WEATHER ROUNDUP
NATIONAL WEATHER SERVICE BISMARCK ND
100 PM CST SUN DEC 10 2017

NOTE: "FAIR" INDICATES FEW OR NO CLOUDS BELOW 12,000 FEET WITH NO
SIGNIFICANT WEATHER AND/OR OBSTRUCTIONS TO VISIBILITY.


NDZ001>003-009>011-017-102000-
NORTHWEST NORTH DAKOTA

CITY           SKY/WX    TMP DP  RH WIND       PRES   REMARKS
WILLISTON      CLOUDY    43  20  39 W13       30.05F
MINOT          CLOUDY    45  25  45 W12       29.99F
MINOT AFB      CLOUDY    43  25  48 NW15      29.97F
$$

NDZ018>021-031>035-040>046-102000-
SOUTHWEST NORTH DAKOTA

CITY           SKY/WX    TMP DP  RH WIND       PRES   REMARKS
BISMARCK       MOSUNNY   48  27  44 W9        30.05F
DICKINSON      CLOUDY    46  22  38 W18       30.05F
GARRISON         N/A     42  23  46 NW20      30.01F
HETTINGER ARPT MOSUNNY   53  14  21 W22       30.11F
$$

NDZ004>008-012>016-024-026-027-054-102000-
NORTHEAST NORTH DAKOTA

CITY           SKY/WX    TMP DP  RH WIND       PRES   REMARKS
GRAND FORKS    PTSUNNY   26  20  77 CALM      30.04F
GRND FRKS AFB  PTSUNNY   26  18  72 CALM      30.03F
DEVILS LAKE    CLOUDY    30  26  85 SW5       29.99F
$$

NDZ022-023-025-028>030-036>039-047>053-102000-
SOUTHEAST NORTH DAKOTA

CITY           SKY/WX    TMP DP  RH WIND       PRES   REMARKS
FARGO          MOSUNNY   27  20  75 N5        30.05F
JAMESTOWN      CLOUDY    36  28  73 N5        29.99F
$$





USA.gov is the U.S. government's official web portal to all federal, state and local government web resources and services.